Flag for Canada Weather past 2 weeks in Lloydminster, Alberta, Canada

12 °F


Feels Like: 3 °F
Forecast: -2 / 8 °F
Wind: 6 mph from Northwest

Location: Lloydminister

Current Time: Nov 25, 2015 at 3:21:05 AM

Latest Report: Nov 25, 2015 at 3:04 AM

Visibility: 9 mi

Pressure: 30.40 "Hg (27.94 "Hg at 648m altitude)

Humidity: 73%

Dew point: 5 °F

Location of LloydminsterLocation

Historic Weather in Lloydminster — Graph


Lloydminster temperature yesterday

Maximum temperature yesterday: 25 °F (at 12:00 AM)
Minimum temperature yesterday: 5 °F (at 9:00 PM)
Average temperature yesterday: 18 °F

Past Weeks' High & Low Weather Summary

High43 °F (Nov 13, 1:00 PM)100% (Nov 24, 2:00 AM)30.41 "Hg (Nov 24, 2:00 AM)
Low5 °F (Nov 19, 5:00 AM)39% (Nov 12, 2:00 PM)29.14 "Hg (Nov 17, 8:00 PM)
Average26 °F79%29.87 "Hg
* Reported Nov 10 2:00 AM — Nov 25 2:00 AM, Lloydminster, Weather by CustomWeather, © 2015

Note: Actual official high and low records may vary slightly from our data, if they occured in-between our weather recording intervals... More about our weather records


Lloydminster weather history for previous 24 hours

Time TempWeatherWind HumidityBarometerVisibility
2:00 AM
Wed, Nov 25
12 °FLight snow. Overcast.6 mph73%30.41 "Hg9 mi
1:55 AM12 °FLight snow. Overcast.7 mph73%30.41 "Hg9 mi
1:00 AM10 °FLight snow. Overcast.5 mph79%30.40 "Hg9 mi
12:00 AM10 °FLight snow. Overcast.6 mph79%30.41 "Hg9 mi
11:00 PM
Tue, Nov 24
9 °FOvercast.7 mph78%30.40 "Hg9 mi
10:00 PM7 °FOvercast.8 mph78%30.41 "Hg15 mi
9:00 PM5 °FClear.10 mph85%30.40 "Hg15 mi
8:00 PM7 °FPassing clouds.13 mph78%30.38 "Hg15 mi
7:00 PM9 °FPassing clouds.12 mph78%30.37 "Hg15 mi
6:00 PM10 °FPassing clouds.17 mph72%30.36 "Hg15 mi
5:00 PM10 °FPartly cloudy.12 mph79%30.33 "Hg15 mi
4:00 PM14 °FScattered clouds.12 mph73%30.31 "Hg15 mi
3:00 PM16 °FPartly sunny.15 mph73%30.29 "Hg15 mi
2:00 PM16 °FLight snow. Overcast.18 mph79%30.28 "Hg12 mi
1:53 PM16 °FLight snow. Overcast.15 mph79%30.27 "Hg15 mi
1:00 PM18 °FLight snow. Overcast.16 mph79%30.26 "Hg12 mi
12:00 PM18 °FLight snow. Overcast.15 mph86%30.25 "Hg15 mi
11:00 AM19 °FLight snow. Overcast.20 mph86%30.24 "Hg3 mi
10:48 AM19 °FLight snow. Mostly cloudy.18 mph86%30.24 "Hg2 mi
10:00 AM19 °FLight snow. Mostly cloudy.13 mph93%30.24 "Hg4 mi
9:00 AM21 °FLight snow. Mostly cloudy.15 mph86%30.22 "Hg1 mi
8:00 AM21 °FLight snow. Low level haze.10 mph93%30.20 "Hg1 mi
7:00 AM21 °FLight snow. Overcast.13 mph93%30.17 "Hg1 mi
6:00 AM21 °FLight snow. Overcast.15 mph93%30.14 "Hg1 mi
5:00 AM23 °FLight snow. Overcast.16 mph93%30.12 "Hg1 mi
4:00 AM23 °FLight snow. Overcast.14 mph93%30.11 "Hg2 mi
3:59 AM23 °FLight snow. Overcast.15 mph93%30.10 "Hg2 mi
3:00 AM23 °FLight snow. Ice fog.14 mph93%30.09 "Hg1 mi
Weather by CustomWeather, © 2015

See weather overviewHow to use our weather pages